N3NDE Weather Reports


time (UTC)temp
C
wind
direction
speed
KPH
gust
KPH
rain 1hr
cm
rain 24hr
cm
rain mn
cm
humidity
%
barometer
mb
20260504232700 15 295 9.7 11.3 0.00 0.00 0.00 42 1011.5
20260504232156 16 333 8.0 11.3 0.00 0.00 0.00 38 1011.2
20260504231653 17 252 9.7 12.9 0.00 0.00 0.00 38 1011.0
20260504231149 17 268 9.7 12.9 0.00 0.00 0.00 36 1011.0
20260504230646 16 350 8.0 9.7 0.00 0.00 0.00 37 1011.2
20260504230145 16 313 6.4 11.3 0.00 0.00 0.00 39 1011.5
20260504225643 16 257 9.7 11.3 0.00 0.00 0.00 38 1011.2
20260504225138 16 259 8.0 9.7 0.00 0.00 0.00 37 1011.6
20260504224635 17 286 12.9 16.1 0.00 0.00 0.00 38 1011.5
20260504224132 18 290 14.5 22.5 0.00 0.00 0.00 35 1011.5
20260504223629 17 185 8.0 11.3 0.00 0.00 0.00 36 1011.3
20260504223125 16 125 3.2 3.2 0.00 0.00 0.00 38 1011.8
20260504222622 15 179 6.4 9.7 0.00 0.00 0.00 43 1011.6
20260504222120 15 84 3.2 4.8 0.00 0.00 0.00 43 1011.5
20260504221616 15 159 1.6 4.8 0.00 0.00 0.00 44 1011.8
20260504221114 14 97 8.0 12.9 0.00 0.00 0.00 43 1011.7
20260504220610 14 70 3.2 3.2 0.00 0.00 0.00 44 1011.6
20260504220108 15 162 9.7 12.9 0.00 0.00 0.00 41 1011.7
20260504215603 15 167 6.4 12.9 0.00 0.00 0.00 37 1011.6
20260504215101 15 85 3.2 4.8 0.00 0.00 0.00 37 1011.8
20260504214557 16 162 4.8 6.4 0.00 0.00 0.00 37 1011.2
20260504214053 16 155 9.7 11.3 0.00 0.00 0.00 37 1011.3
20260504213550 16 111 1.6 1.6 0.00 0.00 0.00 37 1011.2
20260504213047 16 115 9.7 12.9 0.00 0.00 0.00 36 1011.0
20260504212543 17 161 6.4 11.3 0.00 0.00 0.00 36 1010.9
20260504212040 17 156 4.8 4.8 0.00 0.00 0.00 33 1011.1
20260504211537 17 66 6.4 6.4 0.00 0.00 0.00 31 1011.1
20260504211034 18 130 8.0 11.3 0.00 0.00 0.00 29 1010.7
20260504210531 18 109 3.2 9.7 0.00 0.00 0.00 31 1010.7
20260504210028 18 81 6.4 11.3 0.00 0.00 0.00 30 1011.0
20260504205526 17 134 3.2 6.4 0.00 0.00 0.00 33 1010.7
20260504205023 17 169 4.8 6.4 0.00 0.00 0.00 33 1010.7
20260504204521 17 165 4.8 6.4 0.00 0.00 0.00 34 1010.9
20260504204020 17 109 8.0 12.9 0.00 0.00 0.00 35 1011.0
20260504203518 17 35 3.2 3.2 0.00 0.00 0.00 35 1011.0
20260504203015 17 91 6.4 9.7 0.00 0.00 0.00 32 1011.2
20260504202510 18 105 6.4 6.4 0.00 0.00 0.00 31 1011.2
20260504202007 18 103 3.2 4.8 0.00 0.00 0.00 31 1011.3
20260504201504 18 39 3.2 4.8 0.00 0.00 0.00 29 1011.2
20260504201002 18 99 8.0 11.3 0.00 0.00 0.00 29 1011.2
20260504200458 18 106 8.0 9.7 0.00 0.00 0.00 30 1011.3
20260504195955 18 58 4.8 6.4 0.00 0.00 0.00 30 1011.5
20260504195451 18 78 6.4 11.3 0.00 0.00 0.00 29 1011.2
20260504194948 17 90 1.6 3.2 0.00 0.00 0.00 30 1011.3
20260504194444 17 131 4.8 6.4 0.00 0.00 0.00 31 1011.5
20260504193940 17 78 3.2 3.2 0.00 0.00 0.00 32 1011.3
20260504193437 17 324 1.6 3.2 0.00 0.00 0.00 32 1011.5
20260504192936 17 195 4.8 9.7 0.00 0.00 0.00 32 1011.7
20260504192432 17 184 8.0 11.3 0.00 0.00 0.00 33 1011.3
20260504191931 17 249 6.4 6.4 0.00 0.00 0.00 32 1011.3
20260504191429 17 260 8.0 9.7 0.00 0.00 0.00 32 1011.5
20260504190924 17 254 9.7 12.9 0.00 0.00 0.00 32 1011.5
20260504190420 17 242 8.0 9.7 0.00 0.00 0.00 34 1011.7
20260504185917 17 228 9.7 11.3 0.00 0.00 0.00 33 1011.6
20260504185414 17 293 6.4 6.4 0.00 0.00 0.00 33 1011.7
20260504184910 17 257 9.7 12.9 0.00 0.00 0.00 32 1011.6
20260504184406 17 283 9.7 12.9 0.00 0.00 0.00 34 1011.6
20260504183902 17 265 9.7 14.5 0.00 0.00 0.00 34 1011.3
20260504183400 17 273 14.5 17.7 0.00 0.00 0.00 33 1011.5
20260504182857 18 286 12.9 14.5 0.00 0.00 0.00 33 1011.9
20260504182354 18 255 14.5 17.7 0.00 0.00 0.00 33 1011.7
20260504181851 20 31 3.2 3.2 0.00 0.00 0.00 25 1011.3
20260504181348 20 307 4.8 4.8 0.00 0.00 0.00 25 1011.6
20260504180847 20 297 8.0 9.7 0.00 0.00 0.00 27 1011.8
20260504180345 20 341 3.2 4.8 0.00 0.00 0.00 28 1011.7
20260504175843 20 235 6.4 9.7 0.00 0.00 0.00 29 1011.7
20260504175339 20 268 4.8 6.4 0.00 0.00 0.00 30 1011.8
20260504174838 20 276 6.4 9.7 0.00 0.00 0.00 27 1011.8
20260504174335 20 25 1.6 1.6 0.00 0.00 0.00 29 1012.1
20260504173832 19 252 3.2 3.2 0.00 0.00 0.00 29 1012.3
20260504173328 18 321 1.6 3.2 0.00 0.00 0.00 33 1012.1
20260504172826 18 302 4.8 4.8 0.00 0.00 0.00 31 1012.3
20260504172322 18 187 6.4 9.7 0.00 0.00 0.00 33 1012.3
20260504171818 19 249 8.0 9.7 0.00 0.00 0.00 32 1012.3
20260504171315 19 269 3.2 4.8 0.00 0.00 0.00 34 1012.3
20260504170812 18 31 0.0 0.0 0.00 0.00 0.00 36 1012.4
20260504170309 18 301 4.8 6.4 0.00 0.00 0.00 35 1012.8
20260504160227 16 286 4.8 4.8 0.00 0.00 0.00 38 1012.9
20260504150653 12 23 0.0 0.0 0.00 0.00 0.00 40 1013.5
20260504150150 12 23 1.6 1.6 0.00 0.00 0.00 42 1013.6
20260504141119 10 22 0.0 1.6 0.00 0.00 0.00 42 1013.5
20260504140616 10 54 0.0 0.0 0.00 0.00 0.00 41 1013.9
20260504140111 10 38 0.0 0.0 0.00 0.00 0.00 40 1013.7
20260504130540 7 42 0.0 0.0 0.00 0.00 0.00 49 1013.6
20260504110427 6 46 1.6 1.6 0.00 0.00 0.00 49 1013.9
20260504100344 6 47 3.2 4.8 0.00 0.00 0.00 44 1013.4
20260504081737 7 51 3.2 3.2 0.00 0.00 0.00 42 1013.3
20260504081233 7 50 1.6 1.6 0.00 0.00 0.00 42 1013.3
20260504080730 7 50 1.6 1.6 0.00 0.00 0.00 42 1013.1
20260504080226 7 50 1.6 1.6 0.00 0.00 0.00 42 1013.6
20260504070154 8 50 0.0 0.0 0.00 0.00 0.00 37 1013.4
20260504060120 9 49 3.2 4.8 0.00 0.00 0.00 35 1013.5
20260504050548 11 50 3.2 3.2 0.00 0.00 0.00 32 1013.9
20260504045541 11 43 3.2 3.2 0.00 0.00 0.00 33 1013.9
20260504045037 11 39 3.2 3.2 0.00 0.00 0.00 32 1013.9
20260504044535 11 54 3.2 4.8 0.00 0.00 0.00 32 1014.1
20260504044031 11 67 6.4 9.7 0.00 0.00 0.00 31 1013.9
20260504043528 11 56 0.0 3.2 0.00 0.00 0.00 32 1013.9
20260504043026 11 52 1.6 1.6 0.00 0.00 0.00 33 1014.0
20260504042523 11 45 3.2 3.2 0.00 0.00 0.00 32 1014.1
20260504042020 11 41 3.2 3.2 0.00 0.00 0.00 33 1014.1
20260504041515 11 41 0.0 0.0 0.00 0.00 0.00 32 1014.0
20260504041012 12 39 3.2 3.2 0.00 0.00 0.00 31 1013.7
20260504040509 12 32 3.2 3.2 0.00 0.00 0.00 30 1014.0
20260504040006 12 44 3.2 4.8 0.00 0.00 0.00 29 1013.7
20260504035503 12 48 3.2 6.4 0.00 0.00 0.00 29 1013.6
20260504034959 12 49 0.0 1.6 0.00 0.00 0.00 29 1013.6
20260504034457 12 50 6.4 9.7 0.00 0.00 0.00 29 1013.4
20260504033954 12 46 3.2 4.8 0.00 0.00 0.00 29 1013.7
20260504033451 13 33 0.0 1.6 0.00 0.00 0.00 29 1013.5
20260504032949 13 64 4.8 9.7 0.00 0.00 0.00 29 1013.5
20260504032445 13 66 6.4 9.7 0.00 0.00 0.00 29 1013.5
20260504031942 13 57 8.0 9.7 0.00 0.00 0.00 29 1013.6
20260504031439 13 44 9.7 11.3 0.00 0.00 0.00 28 1013.5
20260504030936 12 39 3.2 4.8 0.00 0.00 0.00 30 1013.7
20260504030433 13 35 1.6 4.8 0.00 0.00 0.00 29 1013.9
20260504025929 13 40 4.8 4.8 0.00 0.00 0.00 28 1013.7
20260504025426 13 41 4.8 4.8 0.00 0.00 0.00 28 1013.7
20260504024923 13 42 3.2 4.8 0.00 0.00 0.00 27 1013.9
20260504024420 13 41 1.6 1.6 0.00 0.00 0.00 27 1013.7
20260504023917 13 52 0.0 1.6 0.00 0.00 0.00 27 1013.6
20260504023413 13 40 3.2 4.8 0.00 0.00 0.00 28 1013.3
20260504022909 13 38 3.2 3.2 0.00 0.00 0.00 30 1013.4
20260504022406 15 43 0.0 0.0 0.00 0.00 0.00 24 1013.6
20260504021902 15 45 0.0 0.0 0.00 0.00 0.00 23 1013.6
20260504021359 15 59 3.2 4.8 0.00 0.00 0.00 23 1013.5
20260504020856 15 45 0.0 0.0 0.00 0.00 0.00 23 1013.7
20260504020353 15 46 1.6 1.6 0.00 0.00 0.00 24 1013.4
20260504015849 16 53 0.0 0.0 0.00 0.00 0.00 25 1013.5
20260504015345 16 62 1.6 1.6 0.00 0.00 0.00 24 1013.7
20260504014842 16 53 1.6 1.6 0.00 0.00 0.00 23 1013.7
20260504014337 16 36 0.0 0.0 0.00 0.00 0.00 24 1013.6
20260504013836 16 47 0.0 0.0 0.00 0.00 0.00 22 1013.9
20260504013333 17 57 1.6 3.2 0.00 0.00 0.00 23 1013.7
20260504012830 17 46 0.0 0.0 0.00 0.00 0.00 23 1013.7
20260504012327 17 53 0.0 0.0 0.00 0.00 0.00 22 1014.0
20260504011825 17 49 0.0 0.0 0.00 0.00 0.00 24 1013.7
20260504011321 17 48 0.0 0.0 0.00 0.00 0.00 24 1013.6
20260504010817 18 47 0.0 0.0 0.00 0.00 0.00 24 1013.6
20260504010313 18 48 0.0 0.0 0.00 0.00 0.00 21 1013.7
20260504005809 18 45 0.0 0.0 0.00 0.00 0.00 22 1013.9
20260504005306 18 51 0.0 0.0 0.00 0.00 0.00 19 1013.9
20260504004804 18 48 0.0 0.0 0.00 0.00 0.00 23 1014.0
20260504004301 18 48 0.0 0.0 0.00 0.00 0.00 22 1014.1
20260504003758 18 48 0.0 0.0 0.00 0.00 0.00 19 1014.0
20260504003255 18 53 0.0 0.0 0.00 0.00 0.00 18 1014.2
20260504002751 18 49 0.0 0.0 0.00 0.00 0.00 18 1014.2
20260504002248 18 87 0.0 0.0 0.00 0.00 0.00 17 1014.1
20260504001746 18 330 1.6 3.2 0.00 0.00 0.00 18 1014.0
20260504001243 19 32 0.0 1.6 0.00 0.00 0.00 20 1014.2
20260504000739 19 9 0.0 1.6 0.00 0.00 0.00 18 1014.1
20260504000236 19 323 1.6 3.2 0.00 0.00 0.00 17 1014.1
20260503235735 19 52 1.6 3.2 0.00 0.00 0.00 16 1014.2
20260503235231 19 195 3.2 3.2 0.00 0.00 0.00 16 1014.2
20260503234729 19 320 0.0 1.6 0.00 0.00 0.00 18 1014.1
20260503234227 19 341 3.2 3.2 0.00 0.00 0.00 18 1014.2
20260503233724 20 253 4.8 4.8 0.00 0.00 0.00 17 1014.6
20260503233219 20 258 4.8 4.8 0.00 0.00 0.00 18 1014.6